STARLINK-35953, 66637

Orbit data source: Space-Track

STARLINK-35953, 66637 is a payload satellite owned by SpaceX/Seattle (US) in LEO that was launched on Sun, 23 Nov 2025 UTC via an FALCON 9 launch vehicle from the Air Force Western Test Range (AFWTR). Payload-class satellites include a variety of spacecraft equipped with specific instruments for various scientific and technological missions. These include communications satellites like Starlink; space stations such as the ISS; scientific satellites like the Hubble; Earth observation satellites from companies like Planet Labs, Umbra, and HawkEye 360; GPS; miniature CubeSats for education and research; and military/defense satellites.

Loading next visibility...
Identifier
66637, 2025-271W
Orbit
LEO
Country
Flag of USUS
Related business
Manufacturer
SpaceX/Seattle
Mission
Operational Commercial Communications
Bus & Motor
STARLINK V2MO, Unknown motor
Mass
575 kg wet, ~530 kg dry
Launch date (UTC)
2025-11-23 (2 months ago)
Launch vehicle
FALCON 9
Launch site
Air Force Western Test Range (AFWTR)
Object type
Payload
Rocket body
Debris
Shape & HBR
Box + 2 Pan, 17.7 m
Radar Cross Section
36.964 m²

Expand to show TLE details & history
Last TLE update: 4 hours ago

TLE from 4 hours ago
0 STARLINK-35953
1 66637U 25271W   26037.12438088  .00019982  00000-0  68503-3 0  9991
2 66637  53.1564 286.5711 0000905  91.9151 268.1953 15.30196074 12737
Epoch: 2026-02-06T02:59Z
TLE epoch observation values (Epoch: 2026-02-06T02:59:06.508Z)
Latitude
-0.00003°
Longitude
105.5272°
Altitude
476.146 km
Speed
7.629 km/s
True Right ascension
19h 06m 17s
True Declination
0° 00' 00"
Sunlit
Object was in daylight at epoch
Visualization orbit readout
Latitude
Unknown
Longitude
Unknown
Altitude
Unknown
Speed
Unknown
Apparent Right ascension
Unknown
Apparent Declination
Unknown
Sunlit
N/A
Visualization observer readout
Local Sidereal Time
09:05:11
Azimuth
Unknown
Elevation
Unknown
Doppler factor
Unknown
Orbital elements
Apogee altitude
476.104 km
Perigee altitude
474.864 km
Semi-major axis
6,853.621 km
Eccentricity
0.00009
Inclination
53.1564°
RAAN
286.5711°
Arg. of periapsis
91.9151°
True anomaly
268.18493°
Mean anomaly
268.1953°
Eccentric anomaly
268.19012°
Mean motion
3.82528 °/min
Orbital period
94.11 mins
BSTAR
0.00068503
Loading maneuver chart data...
Computing Atmospheric mass density...
Loading historical data...
Loading historical data...
Loading historical data...
Loading historical data...
Loading historical data...
Loading historical data...
Loading historical data...

Documentation

Showing up to 5 results
|